Flag for Switzerland Weather past 2 weeks in Langenthal, Bern, Switzerland

Now
51 °F

Cool.


Feels Like: 51 °F
Forecast: 34 / 65 °F
Wind: 1 mph from South

Location: Wynau

Current Time: Sep 23, 2014 at 9:07:40 PM

Latest Report: Sep 23, 2014 at 8:00 PM


Visibility: N/A

Pressure: 30.04 "Hg

Humidity: 79%

Dew point: 45 °F

Location of LangenthalLocation

Historic Weather in Langenthal — Graph

°F

Langenthal temperature yesterday

Maximum temperature yesterday: 63 °F (at 3:00 PM)
Minimum temperature yesterday: 47 °F (at 11:00 PM)
Average temperature yesterday: 55 °F

Past Weeks' High & Low Weather Summary

 TemperatureHumidityPressure
High77 °F (Sep 20, 3:00 PM)100% (Sep 17, 3:00 AM)30.21 "Hg (Sep 17, 3:00 AM)
Low41 °F (Sep 23, 6:00 AM)44% (Sep 23, 2:00 PM)29.80 "Hg (Sep 17, 6:00 PM)
Average60 °F83%30.01 "Hg
* Reported Sep 8 7:00 PM — Sep 23 7:00 PM, Langenthal, Weather by CustomWeather, © 2014

Note: Actual official high and low records may vary slightly from our data, if they occured in-between our weather recording intervals... More about our weather records

Advertising

Langenthal weather history for previous 24 hours

 ConditionsComfort  
Time TempWeatherWind HumidityBarometerVisibility
7:00 PM
Sep 23
57 °FCool.3 mph62%30.01 "HgN/A
6:00 PM62 °FRefreshingly cool.9 mph45%29.99 "HgN/A
5:00 PM63 °FMild.10 mph45%29.99 "HgN/A
4:00 PM63 °FMild.10 mph47%30.01 "HgN/A
3:00 PM60 °FRefreshingly cool.7 mph51%30.03 "HgN/A
2:00 PM60 °FRefreshingly cool.13 mph44%30.06 "HgN/A
1:00 PM58 °FRefreshingly cool.15 mph49%30.08 "HgN/A
12:00 PM56 °FRefreshingly cool.15 mph60%30.11 "HgN/A
11:00 AM52 °FCool.17 mph62%30.15 "HgN/A
10:00 AM50 °FCool.10 mph77%30.18 "HgN/A
9:00 AM46 °FCool.5 mph82%30.21 "HgN/A
8:00 AM41 °FQuite cool.3 mph92%30.21 "HgN/A
7:00 AM42 °FQuite cool.2 mph87%30.19 "HgN/A
6:00 AM41 °FQuite cool.2 mph91%30.19 "HgN/A
5:00 AM45 °FQuite cool.5 mph82%30.18 "HgN/A
4:00 AM44 °FQuite cool.5 mph90%30.19 "HgN/A
3:00 AM44 °FQuite cool.3 mph93%30.19 "HgN/A
2:00 AM46 °FCool.No wind89%30.17 "HgN/A
1:00 AM46 °FCool.2 mph94%30.18 "HgN/A
12:00 AM47 °FCool.5 mph93%30.17 "HgN/A
11:00 PM
Sep 22
47 °FCool.1 mph89%30.17 "HgN/A
10:00 PM48 °FCool.1 mph93%30.19 "HgN/A
9:00 PM48 °FCool.1 mph80%30.19 "HgN/A
Weather by CustomWeather, © 2014

See weather overviewHow to use our weather pages